TimeMST,TemperatureF,Dew PointF,Humidity,Sea Level PressureIn,VisibilityMPH,Wind Direction,Wind SpeedMPH,Gust SpeedMPH,PrecipitationIn,Events,Conditions,WindDirDegrees,DateUTC
12:53 AM,25.0,5.0,43,30.20,10.0,SSW,4.6,-,N/A,,Clear,210,2013-01-04 07:53:00
1:53 AM,26.1,5.0,41,30.20,10.0,South,5.8,-,N/A,,Clear,190,2013-01-04 08:53:00
2:53 AM,26.1,5.0,41,30.19,10.0,South,3.5,-,N/A,,Clear,170,2013-01-04 09:53:00
3:53 AM,25.0,6.1,45,30.19,10.0,SSW,4.6,-,N/A,,Clear,200,2013-01-04 10:53:00
4:53 AM,26.1,6.1,43,30.18,10.0,SSW,6.9,-,N/A,,Clear,200,2013-01-04 11:53:00
5:53 AM,26.1,7.0,44,30.17,10.0,Calm,Calm,-,N/A,,Clear,0,2013-01-04 12:53:00
6:53 AM,28.0,7.0,41,30.16,10.0,SSW,10.4,-,N/A,,Clear,200,2013-01-04 13:53:00
7:53 AM,26.1,8.1,47,30.15,10.0,SSW,10.4,-,N/A,,Clear,200,2013-01-04 14:53:00
8:53 AM,30.9,9.0,40,30.12,10.0,South,9.2,-,N/A,,Clear,190,2013-01-04 15:53:00
9:53 AM,34.0,10.0,37,30.17,10.0,Calm,Calm,-,N/A,,Clear,0,2013-01-04 16:53:00
10:53 AM,30.9,10.9,43,30.19,10.0,Calm,Calm,-,N/A,,Clear,0,2013-01-04 17:53:00
11:53 AM,30.9,15.1,52,30.16,10.0,WSW,6.9,-,N/A,,Clear,250,2013-01-04 18:53:00
12:53 PM,36.0,16.0,44,30.11,10.0,West,8.1,-,N/A,,Clear,280,2013-01-04 19:53:00
1:53 PM,36.0,18.0,48,30.11,10.0,West,6.9,-,N/A,,Clear,280,2013-01-04 20:53:00
2:53 PM,35.1,17.1,48,30.11,10.0,West,8.1,-,N/A,,Clear,280,2013-01-04 21:53:00
3:53 PM,28.9,16.0,58,30.15,10.0,West,5.8,-,N/A,,Clear,270,2013-01-04 22:53:00
4:53 PM,23.0,12.9,65,30.16,10.0,West,8.1,-,N/A,,Clear,270,2013-01-04 23:53:00
5:53 PM,26.1,14.0,60,30.17,10.0,West,10.4,-,N/A,,Clear,280,2013-01-05 00:53:00
6:53 PM,25.0,12.9,60,30.17,10.0,West,10.4,-,N/A,,Clear,270,2013-01-05 01:53:00
7:53 PM,25.0,12.0,58,30.16,10.0,WSW,10.4,-,N/A,,Clear,250,2013-01-05 02:53:00
8:53 PM,21.9,12.0,66,30.16,10.0,West,10.4,-,N/A,,Clear,260,2013-01-05 03:53:00
9:53 PM,23.0,12.9,65,30.15,10.0,West,10.4,-,N/A,,Clear,270,2013-01-05 04:53:00
10:53 PM,25.0,12.9,60,30.16,10.0,West,13.8,-,N/A,,Clear,270,2013-01-05 05:53:00
11:53 PM,23.0,12.9,65,30.17,10.0,West,12.7,-,N/A,,Clear,260,2013-01-05 06:53:00